SEEDS II (CO-66)

Last updated on Thu Nov 21 2024 00:03:02 GMT+0000 (Coordinated Universal Time)

1 32791U 08021J 24325.34919502 .00017956 00000+0 10991-2 0 9991 2 32791 97.7094 296.4303 0006729 117.8544 242.3367 15.10251080900033
UTC large
Height (km)
Speed (km/s)
/
Latitude / Longitude
Inclination (degrees)
Orbital Period (minutes)
Azimuth
Elevation
Range (km)
Doppler Factor

Next 0 passes for location: London (51.5072 / 0.1276)

Sorry there are no passes over London.